Printer-friendly version
Follow the MPC on Twitter Follow the MPC on Facebook The MPC blog
Minor Planet Center

MPEC 2010-O14 : 2010 NY65

The following Minor Planet Electronic Circular may be linked-to from your own Web pages, but must not otherwise be redistributed electronically.

A form allowing access to any MPEC is at the bottom of this page.


Read MPEC 2010-O13 Read MPEC 2010-O15


M.P.E.C. 2010-O14                                Issued 2010 July 20, 20:48 UT

     The Minor Planet Electronic Circulars contain information on unusual
         minor planets and routine data on comets.  They are published
   on behalf of Commission 20 of the International Astronomical Union by the
          Minor Planet Center, Smithsonian Astrophysical Observatory,
                          Cambridge, MA 02138, U.S.A.

             Prepared using the Tamkin Foundation Computer Network

                              MPC@CFA.HARVARD.EDU
       URL http://www.minorplanetcenter.org/iau/mpc.html  ISSN 1523-6714

                                   2010 NY65

Observations:
     K10N65Y* S2010 07 14.14345 13 55 48.56 +00 09 53.6          21   R EO014C51
     K10N65Y  s2010 07 14.14345 1 - 6542.6608 - 2204.4482 +  288.5160   EO014C51
     K10N65Y  S2010 07 14.27575 13 56 58.50 +00 08 14.5                 EO014C51
     K10N65Y  s2010 07 14.27575 1 - 6537.7072 - 2219.1608 +  288.5735   EO014C51
     K10N65Y  S2010 07 14.40806 13 58 08.08 +00 06 37.0                 EO014C51
     K10N65Y  s2010 07 14.40806 1 - 6532.9166 - 2234.0464 +  288.8287   EO014C51
     K10N65Y  S2010 07 14.47415 13 58 42.68 +00 05 49.0                 EO014C51
     K10N65Y  s2010 07 14.47415 1 - 6530.2503 - 2247.1517 +  246.8649   EO014C51
     K10N65Y  S2010 07 14.54036 13 59 17.25 +00 04 59.3                 EO014C51
     K10N65Y  s2010 07 14.54036 1 - 6527.8678 - 2248.9371 +  287.0702   EO014C51
     K10N65Y 2C2010 07 20.27661714 43 29.862-00 59 56.00         20.8 R EO014568
     K10N65Y 2C2010 07 20.27916914 43 30.863-00 59 57.54         20.9 R EO014568

Observer details:
568 Mauna Kea.  Observer J. Pittichova.  Measurer D. J. Tholen.  2.24-m
    University of Hawaii reflector.
C51 WISE.  Measurers A. Mainzer, E. Wright, J. Bauer, T. Grav, J. Dailey, J.
    Masiero, R. Cutri, R. McMillan, R. Walker.
    (http://wise.ssl.berkeley.edu/mission_sci.html)

Orbital elements:
2010 NY65                                           PHA, Earth MOID = 0.0168 AU
Epoch 2010 July 23.0 TT = JDT 2455400.5  (M-c)          MPC
M  94.55198              (2000.0)            P               Q
n   1.03003880     Peri.  248.33206     -0.90632120     -0.37836352
a   0.9710323      Node   269.02649     +0.42252324     -0.81923009
e   0.3454915      Incl.   10.84991     -0.00748346     -0.43093283
P   0.96           H   21.8           G   0.15           U   9
Residuals in seconds of arc
100714 C51  0.0   0.1+    100714 C51  0.0   0.5+    100720 568  0.1-  0.0
100714 C51  0.1-  0.6-    100714 C51  0.1-  0.1-
100714 C51  0.1+  0.1-    100720 568  0.0   0.1-

Ephemeris:
2010 NY65                a,e,i = 0.97, 0.35, 11                  q = 0.6355
Date    TT    R. A. (2000) Decl.     Delta      r     Elong.  Phase     V
2010 07 13    13 45.45   +00 24.4    0.201    1.049    93.9    75.1    21.0
2010 07 23    15 01.00   -01 26.8    0.255    1.101   102.8    64.1    21.3
2010 08 02    15 51.36   -02 51.9    0.324    1.147   106.0    58.2    21.7
2010 08 12    16 28.03   -04 03.6    0.400    1.188   106.0    55.1    22.2
2010 08 22    16 57.69   -05 06.5    0.480    1.222   104.3    53.3    22.6

Sonia Keys                   (C) Copyright 2010 MPC           M.P.E.C. 2010-O14

Read MPEC 2010-O13 Read MPEC 2010-O15


MPEC number:

Enter an MPEC number in one of the following forms:

  • 1997-B01 (the full form)
  • J97B01 (the packed version of the full form)
  • B01 (the abbreviated form)

Valid HTML 4.01!